Location: Newark
(41.0400°S, 62.7845°W)
Time: 08:49:04
(UTC+00:00)

Transit 2A - Pass Details

Date: 07 December 2021
Orbit: 591 x 967 km, 66.7° (Epoch: 19 January)

Event Time Altitude Azimuth Distance (km) Brightness Sun altitude
Rises 14:30:42 0° 354° (N) 3,236 9.4 63.3°
Reaches altitude 10° 14:33:21 10° 3° (N) 2,253 8.8 63.7°
Maximum altitude 14:37:57 35° 67° (ENE) 1,123 8.1 64.4°
Drops below altitude 10° 14:42:12 10° 132° (SE) 2,081 8.4 65.0°
Sets 14:44:34 0° 141° (SE) 2,956 9.0 65.4°
